Flag for China Weather past 2 weeks in Guiyang, Guizhou, China

Now
63 °F

Mostly cloudy.


Feels Like: 63 °F
Forecast: 60 / 79 °F
Wind: 8 mph from North

Location: Guiyang Airport

Current Time: May 5, 2015 at 3:21:33 PM

Latest Report: May 5, 2015 at 3:00 PM


Visibility: N/A

Pressure: 29.80 "Hg

Humidity: 88%

Dew point: 59 °F

Location of GuiyangLocation

Historic Weather in Guiyang — Graph

°F

Guiyang temperature yesterday

Maximum temperature yesterday: 64 °F (at 12:00 PM)
Minimum temperature yesterday: 59 °F (at 5:00 AM)
Average temperature yesterday: 61 °F

Past Weeks' High & Low Weather Summary

 TemperatureHumidityPressure
High84 °F (May 1, 1:00 PM)100% (Apr 21, 1:00 AM)30.27 "Hg (Apr 21, 1:00 AM)
Low46 °F (Apr 21, 1:00 AM)35% (May 2, 5:00 PM)29.74 "Hg (May 1, 4:00 AM)
Average62 °F83%30.03 "Hg
* Reported Apr 20 2:00 PM — May 5 2:00 PM, Guiyang, Weather by CustomWeather, © 2015

Note: Actual official high and low records may vary slightly from our data, if they occured in-between our weather recording intervals... More about our weather records

Advertising

Guiyang weather history for previous 24 hours

 ConditionsComfort  
Time TempWeatherWind HumidityBarometerVisibility
2:00 PM
Tue, May 5
64 °FMostly cloudy.6 mph83%29.83 "HgN/A
1:00 PM63 °FMostly cloudy.6 mph88%29.86 "HgN/A
12:00 PM66 °FMostly cloudy.3 mph78%29.86 "HgN/A
11:00 AM64 °FMostly cloudy.3 mph83%29.89 "HgN/A
10:00 AM64 °FMostly cloudy.3 mph78%29.92 "HgN/A
9:00 AM63 °FMostly cloudy.1 mph83%29.92 "HgN/A
8:00 AM59 °FCloudy.1 mph94%29.95 "Hg4 mi
7:00 AM57 °FFog.1 mph100%29.92 "Hg3 mi
6:00 AM57 °FOvercast.1 mph100%29.95 "Hg4 mi
4:00 AM57 °FOvercast.1 mph100%29.98 "Hg4 mi
3:00 AM57 °FOvercast.1 mph100%29.98 "Hg5 mi
2:00 AM59 °FOvercast.1 mph88%30.01 "HgN/A
1:00 AM59 °FMostly cloudy.3 mph88%30.01 "HgN/A
12:00 AM59 °FMostly cloudy.3 mph88%30.04 "HgN/A
11:00 PM
Mon, May 4
59 °FMostly cloudy.1 mph88%30.07 "HgN/A
10:00 PM59 °FOvercast.1 mph88%30.07 "HgN/A
9:00 PM59 °FMostly cloudy.3 mph94%30.04 "Hg5 mi
8:00 PM61 °FMostly cloudy.6 mph83%30.04 "Hg5 mi
7:00 PM61 °FMostly cloudy.6 mph83%30.01 "HgN/A
6:00 PM63 °FMostly cloudy.6 mph83%30.01 "HgN/A
5:00 PM63 °FMostly cloudy.6 mph83%30.01 "HgN/A
4:00 PM63 °FMostly cloudy.6 mph83%30.04 "HgN/A
3:00 PM63 °FMostly cloudy.8 mph83%30.04 "HgN/A
Weather by CustomWeather, © 2015

See weather overviewHow to use our weather pages